Regional Weather Roundup
Issued by NWS

Home | Current Version | Previous Version | Text Only | Print | Product List | Glossary Off
Versions: 1 2 3 4 5 6 7 8 9 10 11 12 13 14 15 16 17 18 19 20 21 22 23 24 25 26 27 28 29 30 31 32 33 34 35 36 37 38 39 40 41 42 43 44 45 46 47 48 49 50

000
ASUS45 KABQ 280010
RWRNM
NEW MEXICO REGIONAL WEATHER ROUNDUP
NATIONAL WEATHER SERVICE ALBUQUERQUE NM
600 PM MDT THU AUG 27 2015

NOTE: "FAIR" MEANS FEW OR NO CLOUDS BELOW 12,000 FEET AGL WITH NO
       SIGNIFICANT WEATHER OR OBSTRUCTIONS TO VISION.

      THIS PRODUCT IS RELEASED AS TWO VERSIONS.  ONE VERSION NEAR
      THE TOP OF THE HOUR CONTAINING PRELIMINARY DATA FROM ALBUQUERQUE
      AND OTHER STATIONS.  A FINAL VERSION WITH ADDITIONAL DATA IS
      ISSUED ABOUT 10 MINUTES AFTER THE HOUR.

NMZ501-503-504-510>518-280100-
NORTHWEST PLATEAU/NORTHCENTRAL MOUNTAINS

CITY           SKY/WX    TMP DP  RH WIND       PRES   REMARKS
FARMINGTON     MOSUNNY   82  49  31 W17G25    30.17F
6HR MIN TEMP:  73; 6HR MAX TEMP:  85;

LOS ALAMOS     PTSUNNY   76  49  38 W8        30.30S
SANTA FE       MOSUNNY   80  50  34 N9        30.21S
6HR MIN TEMP:  74; 6HR MAX TEMP:  85;

TAOS           CLOUDY    77  45  31 N18G24    30.29R THUNDER
ANGEL FIRE     RAIN      64  51  64 N13G20    30.37R

$$
NMZ402-403-502-505>509-280100-
WESTCENTRAL MOUNTAINS/SOUTHWEST MOUNTAINS

CITY           SKY/WX    TMP DP  RH WIND       PRES   REMARKS
GALLUP         PTSUNNY   77  53  43 E5        30.27S
6HR MIN TEMP:  74; 6HR MAX TEMP:  83;

GRANTS         PTSUNNY   74  53  46 NW6       30.29F
SILVER CITY      N/A     81  52  36 NW15      30.22S

$$
NMZ407-409-411-412-280100-
SOUTHERN DESERTS

CITY           SKY/WX    TMP DP  RH WIND       PRES   REMARKS
DEMING         PTSUNNY   90  48  23 W9        30.09F
6HR MIN TEMP:  86; 6HR MAX TEMP:  92;

LAS CRUCES     MOSUNNY   90  49  24 SW3       30.10S
HOLLOMAN AFB   MOSUNNY   87  53  31 NE23G35   30.05S THUNDER
ALAMOGORDO     PTSUNNY   90  50  25 N12       30.08R THUNDER
T OR C         PTSUNNY   87  47  24 CALM      30.12S
6HR MIN TEMP:  79; 6HR MAX TEMP:  89; 6HR PCP: TRACE;


$$
NMZ519>523-280100-
CENTRAL VALLEYS/CENTRAL HIGHLANDS

CITY           SKY/WX    TMP DP  RH WIND       PRES   REMARKS
ALBUQUERQUE    PTSUNNY   82  53  36 SW16      30.17F
6HR MIN TEMP:  77; 6HR MAX TEMP:  86;

DOUBLE EAGLE   PTSUNNY   81  54  39 SW10      30.21F
MORIARTY ARPT  FAIR      79  48  33 W12       30.23F
6HR MIN TEMP:  75; 6HR MAX TEMP:  83;

CLINES CORNERS PTSUNNY   74  50  42 W17       30.27S
6HR MIN TEMP:  70; 6HR MAX TEMP:  80;

BELEN          NOT AVBL
SOCORRO        FAIR      79  53  40 N6        30.15S
6HR MIN TEMP:  77; 6HR MAX TEMP:  89;


$$
NMZ524>526-539-540-280100-
SOUTHCENTRAL MOUNTAINS

CITY           SKY/WX    TMP DP  RH WIND       PRES   REMARKS
RUIDOSO        CLOUDY    63  55  77 MISG      30.33F

$$
NMZ527>531-280100-
NORTHEAST HIGHLANDS/NORTHEAST PLAINS

CITY           SKY/WX    TMP DP  RH WIND       PRES   REMARKS
LAS VEGAS      MOSUNNY   82  44  26 W15G22    30.23S
6HR MIN TEMP:  77; 6HR MAX TEMP:  84;

RATON          PTSUNNY   80  44  27 W15       30.14S
6HR MIN TEMP:  80; 6HR MAX TEMP:  87;

CLAYTON        CLOUDY    87  52  29 CALM      30.04F
6HR MIN TEMP:  85; 6HR MAX TEMP:  90;


$$
NMZ532>537-280100-
EASTCENTRAL PLAINS

CITY           SKY/WX    TMP DP  RH WIND       PRES   REMARKS
TUCUMCARI      PTSUNNY   88  54  31 SW25G35   30.00F
6HR MIN TEMP:  86; 6HR MAX TEMP:  97;

CANNON AFB     PTSUNNY   78  58  50 SW9       30.09F
6HR MIN TEMP:  77; 6HR MAX TEMP:  94; 6HR PCP: TRACE;

CLOVIS AIRPORT PTSUNNY   77  55  47 SW14      30.09F

$$
NMZ028-029-538-280100-
SOUTHEAST PLAINS

CITY           SKY/WX    TMP DP  RH WIND       PRES   REMARKS
ROSWELL        CLOUDY    88  56  33 N5        30.05S
6HR MIN TEMP:  79; 6HR MAX TEMP:  97;

ARTESIA        PTSUNNY   91  55  29 N8        30.04S
CARLSBAD       NOT AVBL


$$



USA.gov is the U.S. government's official web portal to all federal, state and local government web resources and services.